Web Car-Videos.com

 

Car-videos.com

Videos
Performance Statistics
Unit Converter
Horsepower & Torque
Speed/RPM Calculator
Tires
FAQ
Contact Us
Updates and News Feed
Advertise with Us!  new!
Link to Us


Add to My AOL

Subscribe in NewsGator Online








Performance Home  |  List of all Cars  |  Custom Statistics  |  Tracks

Silverstone Circuit
Silverstone, U.K.
3.25 Miles

The first lap time is from a dead stop and the 2nd is taken when the car passes the starting line at the end of the 1st lap.

Car First Lap Second Lap
1.1991 Ferrari F40 (5M)2:47.32:43.3
2.2003 Dodge Viper SRT-10 (6M)2:50.22:45.5
3.1998 Dodge Viper GTS-R (6M)2:51.42:46.3
4.1966 AC Cobra 427 (4M)2:52.52:48.3
5.1997 Lotus Esprit Turbo (5M)2:56.92:51.4
6.1993 Mazda RX-7 Twin Turbo (5M)2:57.32:52.5
7.2001 Ford Mustang SVT Cobra (5M)3:00.22:55.4
8.1995 Acura NSX (5M)3:00.22:54.8
9.1970 Ford Mustang Boss 429 (4M)3:00.22:54.8
10.2002 Maserati Spyder Cambiocorsa (6MAT)3:00.42:55.5
11.2002 Mercedes-Benz C 32 AMG (5A)3:00.52:56.6
12.1989 Pontiac Trans Am Turbo (4A)3:01.02:55.3
13.2004 Subaru Impreza WRX STi (USA) (6M)3:02.12:57.8
14.2004 Pontiac GTO 5.7 (6M)3:02.42:57.5
15.2001 Panoz Esperante (5M)3:02.52:57.6
16.2003 Nissan 350Z Track (6M)3:04.32:58.9
17.1997 BMW M3 (5M)3:04.53:00.0
18.2004 Mazda RX-8 (6M)3:05.23:00.1
19.2002 Opel Speedster (5M)3:06.73:01.9
20.1995 Mitsubishi Eclipse GS-T (5M)3:07.03:01.7
21.1995 Ford Escort RS Cosworth (UK) (5M)3:07.53:02.6
22.2002 Subaru Impreza WRX Sedan 17" (5M)3:07.53:02.9
23.1998 Volvo C70 Coupe (5M)3:09.23:04.0
24.2004 Nissan Maxima 3.5 SE (6M)3:10.03:04.4
25.1995 Ford Mustang Cobra (5M)3:10.43:04.6
26.2003 Infiniti M45 (5A)3:11.33:05.7
27.1994 Chevrolet Impala SS (4A)3:11.43:05.9
28.2001 Audi TT Coupe Quattro 225 HP (6M)3:11.53:06.8
29.2001 Jaguar S-Type 4.0 (5A)3:11.63:06.2
30.2001 Mazda Miata (5M)3:11.63:05.7
31.2002 Nissan Sentra SE-R Spec V (6M)3:12.03:06.7
32.1998 Ford Contour SVT (5M)3:12.03:06.5
33.2002 BMW 745i (6A)3:12.03:07.0
34.2001 BMW 330 xi (5M)3:12.13:06.6
35.1991 Dodge Stealth ES (5M)3:12.43:06.0
36.2002 Acura RSX Type-R (Jap) (6M)3:12.53:05.9
37.2005 Pontiac Grand Prix GXP (4A)3:12.83:07.0
38.2001 BMW 330 i (5M)3:12.83:07.6
39.1968 Chevrolet Corvette L88 (3A)3:13.03:07.6
40.2002 Ford Focus SVT (6M)3:13.03:07.3
41.1992 Chevrolet Camaro Z28 (4A)3:13.73:08.0
42.2003 Acura 3.2TL Type-S (5A)3:13.93:08.7
43.1998 Mercedes-Benz E 320 AWD (5A)3:14.43:09.8
44.1997 Audi A4 2.8 Quattro (5M)3:14.53:09.2
45.2001 Audi TT Roadster Quattro 225 HP (6M)3:14.53:09.0
46.1999 Cadillac Seville STS (4A)3:14.83:10.3
47.2000 Honda Civic SI (5M)3:15.33:09.0
48.2001 BMW 330 Ci Convertible (5M)3:15.33:09.4
49.1986 Pontiac Fiero GT (4M)3:15.93:09.7
50.1999 Volvo S80 T6 (4A)3:15.93:10.2
51.1981 Delorean DMC-12 (5M)3:16.33:10.2
52.1999 Bentley Arnage (5A)3:16.73:10.9
53.1994 Chevrolet Beretta Z26 (4A)3:17.73:11.4
54.1999 Mercury Cougar V6 (5M)3:17.73:12.1
55.1997 Volkswagen Jetta GLX VR6 (5M)3:17.83:11.6
56.2001 Toyota Celica GT (5M)3:17.93:11.8
57.1999 Saab 9-3 SE 5-door (5M)3:18.33:12.3
58.2001 Chevrolet Monte Carlo SS (4A)3:18.33:13.2
59.1989 BMW 535 i (5M)3:18.93:12.9
60.2003 Honda Civic SI (5M)3:19.03:13.0
61.2001 Ford Focus ZX3 (5M)3:19.23:13.1
62.2002 BMW 330 i (5A)3:19.73:14.7
63.2003 Honda Accord EX 2.4 Sedan (5M)3:19.83:14.4
64.1998 Ford Escort ZX2 Sport (5M)3:20.23:14.0
65.2003 Toyota Camry XLE V6 (4A)3:20.43:14.2
66.2000 Jeep Grand Cherokee V8 Limited 2WD (4A)3:20.73:15.4
67.1993 Citroen XM (4A)3:22.64:16.8
68.1996 Honda Civic EX Coupe (5M)3:22.73:16.5
69.2002 Saturn Vue V6 AWD (5A)3:23.13:17.8
70.2001 Nissan Frontier SC Crew Cab 4x4 (4A)3:23.73:17.5
71.1998 Lincoln Town Car (4A)3:24.43:17.7
72.1998 Ford Crown Victoria Police Edition (4A)3:24.73:18.4
73.2000 Ford Mustang Coupe (4A)3:25.03:19.1
74.1996 Honda Civic EX Sedan (4A)3:25.43:18.7
75.2003 Honda Element EX 2WD (5M)3:25.63:18.5
76.2003 Volkswagen Passat GLX V6 (5A)3:26.13:20.4
77.1997 Mitsubishi Galant ES (4A)3:26.33:20.6
78.1998 Isuzu Amigo V-6 (5M)3:26.43:21.1
79.2002 Kia Rio (5M)3:28.53:21.9
80.2002 Kia Sedona EX (5A)3:29.23:23.2
81.2002 Mitsubishi Lancer O-Z Rally (5M)3:29.43:23.4
82.1998 Toyota Camry LE 2.2 (4A)3:31.43:26.2
83.1979 Dodge Omni O24 (4M)3:35.83:29.9
84.1983 Chevrolet Cavalier CS (5M)3:38.03:30.8
85.1995 Land Rover Discovery (4A)3:41.73:36.9